N8SDR Weather Reports


Display with metric or nautical units.
time (UTC)temp
F
wind
direction
speed
MPH
gust
MPH
rain 1hr
in
rain 24hr
in
rain mn
in
humidity
%
barometer
mb
20260902203140 97 251 1.0 5.0 0.00 0.00 0.00 56 1013.3
20260902202635 96 187 4.0 6.0 0.00 0.00 0.00 57 1013.2
20260902202132 97 195 8.0 9.0 0.00 0.00 0.00 56 1013.4
20260902201628 96 333 0.0 3.0 0.00 0.00 0.00 58 1013.1
20260902201127 98 4 1.0 2.0 0.00 0.00 0.00 56 1013.3
20260902200622 98 185 0.0 5.0 0.00 0.00 0.00 57 1013.3
20260902200118 97 238 0.0 2.0 0.00 0.00 0.00 57 1013.2
20260902195614 98 341 1.0 2.0 0.00 0.00 0.00 56 1013.3
20260902195113 96 257 0.0 7.0 0.00 0.00 0.00 59 1013.6
20260902194612 96 191 2.0 6.0 0.00 0.00 0.00 57 1013.2
20260902194108 97 205 3.0 5.0 0.00 0.00 0.00 57 1013.4
20260902193604 96 219 3.0 10.0 0.00 0.00 0.00 58 1013.8
20260902193103 96 158 0.0 7.0 0.00 0.00 0.00 57 1013.6
20260902192601 97 176 1.0 5.0 0.00 0.00 0.00 58 1013.7
20260902192100 96 202 2.0 8.0 0.00 0.00 0.00 57 1013.8
20260902191555 96 343 1.0 1.0 0.00 0.00 0.00 56 1013.9
20260902191049 97 353 1.0 7.0 0.00 0.00 0.00 58 1013.9
20260902190546 96 212 0.0 6.0 0.00 0.00 0.00 57 1013.9
20260902190041 96 111 0.0 6.0 0.00 0.00 0.00 56 1014.1
20260902185537 96 304 0.0 2.0 0.00 0.00 0.00 58 1014.0
20260902185032 96 306 1.0 3.0 0.00 0.00 0.00 59 1014.2
20260902184527 96 353 3.0 6.0 0.00 0.00 0.00 58 1014.2
20260902184022 97 166 0.0 3.0 0.00 0.00 0.00 57 1014.1
20260902183519 97 284 1.0 7.0 0.00 0.00 0.00 58 1014.1
20260902183015 95 269 0.0 3.0 0.00 0.00 0.00 59 1014.0
20260902182511 95 179 2.0 3.0 0.00 0.00 0.00 58 1014.2
20260902182006 96 329 0.0 3.0 0.00 0.00 0.00 59 1014.2
20260902181502 97 176 0.0 6.0 0.00 0.00 0.00 56 1014.3
20260902180956 97 298 0.0 2.0 0.00 0.00 0.00 58 1014.3
20260902180457 96 312 0.0 2.0 0.00 0.00 0.00 55 1014.4
20260902175952 95 160 1.0 3.0 0.00 0.00 0.00 57 1014.3
20260902175447 96 300 0.0 10.0 0.00 0.00 0.00 58 1014.2
20260902174943 95 190 5.0 10.0 0.00 0.00 0.00 56 1014.4
20260902174439 95 310 0.0 3.0 0.00 0.00 0.00 58 1014.4
20260902173935 93 267 0.0 5.0 0.00 0.00 0.00 61 1014.8
20260902173434 94 4 0.0 5.0 0.00 0.00 0.00 59 1014.6
20260902172929 94 331 0.0 0.0 0.00 0.00 0.00 61 1014.7
20260902172429 95 289 1.0 3.0 0.00 0.00 0.00 61 1014.6
20260902171924 95 258 2.0 5.0 0.00 0.00 0.00 59 1015.0
20260902171419 95 176 5.0 15.0 0.00 0.00 0.00 61 1014.9
20260902170915 95 226 1.0 3.0 0.00 0.00 0.00 61 1014.8
20260902170410 93 102 0.0 2.0 0.00 0.00 0.00 64 1014.6
20260902165906 93 286 2.0 5.0 0.00 0.00 0.00 64 1014.8
20260902165405 93 307 0.0 2.0 0.00 0.00 0.00 65 1014.6
20260902164900 93 294 2.0 3.0 0.00 0.00 0.00 64 1014.7
20260902164355 94 227 1.0 7.0 0.00 0.00 0.00 66 1014.8
20260902163854 94 220 5.0 6.0 0.00 0.00 0.00 66 1014.9
20260902163349 94 173 1.0 7.0 0.00 0.00 0.00 66 1014.9
20260902162847 93 262 3.0 5.0 0.00 0.00 0.00 63 1014.9
20260902162342 94 283 0.0 1.0 0.00 0.00 0.00 62 1014.7
20260902161837 93 167 0.0 3.0 0.00 0.00 0.00 63 1014.9
20260902161332 93 205 1.0 3.0 0.00 0.00 0.00 68 1014.9
20260902160828 94 233 3.0 6.0 0.00 0.00 0.00 65 1014.9
20260902160323 93 293 0.0 2.0 0.00 0.00 0.00 67 1014.8
20260902155821 91 209 0.0 5.0 0.00 0.00 0.00 67 1014.9
20260902155320 93 294 1.0 3.0 0.00 0.00 0.00 65 1015.1
20260902154816 93 170 1.0 3.0 0.00 0.00 0.00 64 1014.9
20260902154311 92 218 4.0 5.0 0.00 0.00 0.00 67 1014.9
20260902153810 93 271 0.0 3.0 0.00 0.00 0.00 67 1014.8
20260902153304 92 161 0.0 0.0 0.00 0.00 0.00 68 1014.8
20260902152800 92 342 0.0 1.0 0.00 0.00 0.00 68 1015.2
20260902152256 91 227 0.0 2.0 0.00 0.00 0.00 68 1014.9
20260902151756 91 253 0.0 3.0 0.00 0.00 0.00 70 1015.2
20260902151251 90 249 4.0 7.0 0.00 0.00 0.00 71 1015.0
20260902150746 91 317 0.0 2.0 0.00 0.00 0.00 70 1015.1
20260902150243 90 192 1.0 2.0 0.00 0.00 0.00 71 1015.1
20260902145741 89 327 3.0 3.0 0.00 0.00 0.00 74 1015.1
20260902145237 89 8 0.0 0.0 0.00 0.00 0.00 73 1015.2
20260902144732 89 197 0.0 1.0 0.00 0.00 0.00 72 1015.1
20260902144228 88 290 0.0 3.0 0.00 0.00 0.00 75 1015.1
20260902143723 89 204 0.0 2.0 0.00 0.00 0.00 73 1015.3
20260902143218 88 207 0.0 5.0 0.00 0.00 0.00 75 1015.2
20260902142714 87 152 0.0 0.0 0.00 0.00 0.00 74 1015.1
20260902142209 87 215 2.0 7.0 0.00 0.00 0.00 75 1015.1
20260902141704 87 300 1.0 5.0 0.00 0.00 0.00 75 1015.3
20260902141159 87 239 0.0 0.0 0.00 0.00 0.00 75 1015.1
20260902140654 87 217 1.0 1.0 0.00 0.00 0.00 74 1014.9
20260902140149 87 192 0.0 2.0 0.00 0.00 0.00 75 1014.9
20260902135648 86 160 0.0 0.0 0.00 0.00 0.00 75 1014.8
20260902135143 86 228 0.0 3.0 0.00 0.00 0.00 76 1015.2
20260902134639 85 187 0.0 2.0 0.00 0.00 0.00 78 1015.0
20260902134138 85 301 0.0 2.0 0.00 0.00 0.00 78 1015.3
20260902133633 85 200 3.0 5.0 0.00 0.00 0.00 79 1015.1
20260902133128 84 286 0.0 2.0 0.00 0.00 0.00 80 1014.8
20260902132623 83 33 0.0 0.0 0.00 0.00 0.00 83 1015.0
20260902132118 82 197 0.0 0.0 0.00 0.00 0.00 83 1014.9
20260902131614 82 165 0.0 0.0 0.00 0.00 0.00 85 1014.8
20260902131109 82 178 2.0 2.0 0.00 0.00 0.00 84 1015.1
20260902130606 81 209 1.0 1.0 0.00 0.00 0.00 86 1015.1
20260902130101 80 199 0.0 1.0 0.00 0.00 0.00 87 1015.1
20260902125556 80 191 0.0 0.0 0.00 0.00 0.00 88 1015.0
20260902125051 79 206 0.0 1.0 0.00 0.00 0.00 89 1015.1
20260902124548 79 178 1.0 2.0 0.00 0.00 0.00 89 1015.1
20260902124048 78 213 0.0 1.0 0.00 0.00 0.00 90 1014.9
20260902123544 78 182 0.0 1.0 0.00 0.00 0.00 91 1014.9
20260902123044 78 204 1.0 2.0 0.00 0.00 0.00 91 1015.0
20260902122538 78 238 0.0 0.0 0.00 0.00 0.00 92 1014.9
20260902122034 77 188 0.0 0.0 0.00 0.00 0.00 93 1014.9
20260902121534 76 169 0.0 0.0 0.00 0.00 0.00 94 1014.7
20260902121029 75 194 0.0 0.0 0.00 0.00 0.00 96 1015.0
20260902120525 75 195 0.0 0.0 0.00 0.00 0.00 97 1014.8
20260902120021 75 186 0.0 0.0 0.00 0.00 0.00 98 1014.8
20260902115516 74 218 0.0 0.0 0.00 0.00 0.00 99 1014.9
20260902115013 74 184 0.0 0.0 0.00 0.00 0.00 99 1015.0
20260902114508 74 193 0.0 0.0 0.00 0.00 0.00 99 1014.6
20260902114008 74 218 0.0 0.0 0.00 0.00 0.00 99 1014.5
20260902113503 74 175 0.0 0.0 0.00 0.00 0.00 99 1014.6
20260902113004 73 89 0.0 0.0 0.00 0.00 0.00 99 1014.5
20260902112459 73 89 0.0 0.0 0.00 0.00 0.00 99 1014.5
20260902111955 73 89 0.0 0.0 0.00 0.00 0.00 99 1014.4
20260902111452 73 89 0.0 0.0 0.00 0.00 0.00 99 1014.2
20260902110947 73 95 0.0 0.0 0.00 0.00 0.00 99 1014.3
20260902110443 73 95 0.0 0.0 0.00 0.00 0.00 99 1014.4
20260902105938 73 95 0.0 0.0 0.00 0.00 0.00 99 1014.4
20260902105433 73 95 0.0 0.0 0.00 0.00 0.00 99 1014.1
20260902104927 73 91 0.0 0.0 0.00 0.00 0.00 99 1014.3
20260902104423 73 78 0.0 0.0 0.00 0.00 0.00 99 1014.5
20260902103923 73 36 0.0 0.0 0.00 0.00 0.00 99 1014.5
20260902103418 73 34 0.0 0.0 0.00 0.00 0.00 99 1014.4
20260902102913 73 89 0.0 0.0 0.00 0.00 0.00 99 1014.4
20260902102410 74 100 0.0 0.0 0.00 0.00 0.00 99 1014.4
20260902101907 74 123 0.0 0.0 0.00 0.00 0.00 99 1014.3
20260902101401 74 147 0.0 0.0 0.00 0.00 0.00 99 1014.4
20260902100900 74 144 0.0 0.0 0.00 0.00 0.00 99 1014.4
20260902100400 74 156 0.0 0.0 0.00 0.00 0.00 99 1014.1
20260902095855 74 42 0.0 0.0 0.00 0.00 0.00 99 1014.4
20260902095354 74 152 0.0 0.0 0.00 0.00 0.00 99 1014.2
20260902094849 74 153 0.0 0.0 0.00 0.00 0.00 99 1014.3
20260902094345 74 167 0.0 0.0 0.00 0.00 0.00 99 1014.5
20260902093844 74 164 0.0 0.0 0.00 0.00 0.00 99 1014.6
20260902093340 74 148 0.0 0.0 0.00 0.00 0.00 99 1014.4
20260902092838 74 150 0.0 0.0 0.00 0.00 0.00 99 1014.5
20260902092334 74 101 0.0 0.0 0.00 0.00 0.00 99 1014.4
20260902091829 74 115 0.0 0.0 0.00 0.00 0.00 99 1014.2
20260902091324 74 43 0.0 0.0 0.00 0.00 0.00 99 1014.2
20260902090821 74 83 0.0 0.0 0.00 0.00 0.00 99 1014.3
20260902090320 74 16 0.0 0.0 0.00 0.00 0.00 99 1014.1
20260902085819 74 15 0.0 0.0 0.00 0.00 0.00 99 1014.1
20260902085315 74 352 0.0 0.0 0.00 0.00 0.00 99 1014.1
20260902084810 74 13 0.0 0.0 0.00 0.00 0.00 99 1014.1
20260902084307 74 13 0.0 0.0 0.00 0.00 0.00 99 1013.7
20260902083802 74 55 0.0 0.0 0.00 0.00 0.00 99 1013.8
20260902083302 74 174 0.0 0.0 0.00 0.00 0.00 99 1013.4
20260902082756 74 68 0.0 0.0 0.00 0.00 0.00 99 1013.4
20260902082253 74 44 0.0 0.0 0.00 0.00 0.00 99 1013.4
20260902081749 74 7 0.0 0.0 0.00 0.00 0.00 99 1013.6
20260902081245 74 328 0.0 0.0 0.00 0.00 0.00 99 1013.8
20260902080739 74 346 0.0 0.0 0.00 0.00 0.00 99 1013.4
20260902080237 74 7 0.0 0.0 0.00 0.00 0.00 99 1013.7
20260902075736 74 333 0.0 0.0 0.00 0.00 0.00 99 1013.7
20260902075232 74 13 0.0 0.0 0.00 0.00 0.00 99 1013.8
20260902074732 74 342 0.0 0.0 0.00 0.00 0.00 99 1013.6
20260902074227 74 358 0.0 0.0 0.00 0.00 0.00 99 1013.3
20260902073722 74 0 0.0 0.0 0.00 0.00 0.00 99 1013.6
20260902073218 74 0 0.0 0.0 0.00 0.00 0.00 99 1013.2
20260902072714 74 0 0.0 0.0 0.00 0.00 0.00 99 1013.3
20260902072211 74 0 0.0 0.0 0.00 0.00 0.00 99 1013.4
20260902071706 74 3 0.0 0.0 0.00 0.00 0.00 99 1013.3
20260902071201 74 40 0.0 0.0 0.00 0.00 0.00 99 1013.3
20260902070658 74 19 0.0 0.0 0.00 0.00 0.00 99 1013.3
20260902070157 74 19 0.0 0.0 0.00 0.00 0.00 98 1013.4
20260902065655 74 19 0.0 0.0 0.00 0.00 0.00 98 1013.6
20260902065152 75 19 0.0 0.0 0.00 0.00 0.00 98 1013.4
20260902064647 75 20 0.0 0.0 0.00 0.00 0.00 98 1013.1
20260902064142 75 20 0.0 0.0 0.00 0.00 0.00 98 1013.6
20260902063638 75 14 0.0 0.0 0.00 0.00 0.00 97 1013.0
20260902063132 75 79 0.0 0.0 0.00 0.00 0.00 97 1013.3
20260902062631 75 80 0.0 0.0 0.00 0.00 0.00 97 1013.3
20260902062127 75 64 0.0 0.0 0.00 0.00 0.00 97 1013.3
20260902061626 76 63 0.0 0.0 0.00 0.00 0.00 96 1013.3
20260902061122 76 63 0.0 0.0 0.00 0.00 0.00 96 1013.3
20260902060618 76 63 0.0 0.0 0.00 0.00 0.00 96 1013.2
20260902060114 76 64 0.0 0.0 0.00 0.00 0.00 96 1013.4
20260902055610 76 63 0.0 0.0 0.00 0.00 0.00 96 1013.4
20260902055105 76 71 0.0 0.0 0.00 0.00 0.00 96 1013.3
20260902054600 76 63 0.0 0.0 0.00 0.00 0.00 96 1013.3
20260902054056 76 63 0.0 0.0 0.00 0.00 0.00 96 1013.3
20260902053551 76 63 0.0 0.0 0.00 0.00 0.00 96 1013.4
20260902053045 76 63 0.0 0.0 0.00 0.00 0.00 96 1013.4
20260902052539 76 63 0.0 0.0 0.00 0.00 0.00 96 1013.6
20260902052035 77 63 0.0 0.0 0.00 0.00 0.00 95 1013.6
20260902051535 77 63 0.0 0.0 0.00 0.00 0.00 95 1013.3
20260902051033 77 63 0.0 0.0 0.00 0.00 0.00 95 1013.7
20260902050528 77 63 0.0 0.0 0.00 0.00 0.00 94 1013.4
20260902050024 77 63 0.0 0.0 0.00 0.00 0.00 94 1013.8
20260902045520 77 63 0.0 0.0 0.00 0.00 0.00 94 1013.3
20260902045016 77 63 0.0 0.0 0.00 0.00 0.00 93 1013.4
20260902044516 78 63 0.0 0.0 0.00 0.00 0.00 93 1013.4
20260902044012 78 63 0.0 0.0 0.00 0.00 0.00 93 1013.6
20260902043507 78 63 0.0 0.0 0.00 0.00 0.00 93 1013.2
20260902043007 78 75 0.0 0.0 0.00 0.00 0.00 92 1013.4
20260902042501 78 75 0.0 0.0 0.00 0.00 0.00 92 1013.6
20260902041956 78 75 0.0 0.0 0.00 0.00 0.00 92 1013.2
20260902041450 78 75 0.0 0.0 0.00 0.00 0.00 92 1013.4
20260902040945 78 75 0.0 0.0 0.00 0.00 0.00 91 1013.6
20260902040445 78 75 0.0 0.0 0.00 0.00 0.00 91 1013.6
20260902035943 78 75 0.0 0.0 0.00 0.00 0.00 91 1013.6
20260902035438 79 75 0.0 0.0 0.00 0.00 0.00 90 1013.7
20260902034933 79 75 0.0 0.0 0.00 0.00 0.00 90 1013.6
20260902034427 79 75 0.0 0.0 0.00 0.00 0.00 89 1013.6
20260902033926 79 75 0.0 0.0 0.00 0.00 0.00 89 1013.7
20260902033420 80 75 0.0 0.0 0.00 0.00 0.00 88 1013.4
20260902032920 80 75 0.0 0.0 0.00 0.00 0.00 88 1013.6
20260902032414 79 75 0.0 0.0 0.00 0.00 0.00 89 1013.4
20260902031909 79 75 0.0 0.0 0.00 0.00 0.00 89 1013.6
20260902031405 79 75 0.0 0.0 0.00 0.00 0.00 89 1013.6
20260902030901 79 75 0.0 0.0 0.00 0.00 0.00 89 1013.4
20260902030354 79 75 0.0 0.0 0.00 0.00 0.00 89 1013.4
20260902025854 80 75 0.0 0.0 0.00 0.00 0.00 88 1013.6
20260902025349 80 75 0.0 0.0 0.00 0.00 0.00 88 1013.6
20260902024843 80 75 0.0 0.0 0.00 0.00 0.00 88 1013.7
20260902024340 80 75 0.0 0.0 0.00 0.00 0.00 88 1013.4
20260902023834 80 75 0.0 0.0 0.00 0.00 0.00 87 1013.6
20260902023330 80 75 0.0 0.0 0.00 0.00 0.00 87 1013.6
20260902022829 80 75 0.0 0.0 0.00 0.00 0.00 86 1013.6
20260902022325 81 75 0.0 0.0 0.00 0.00 0.00 85 1013.6
20260902021821 81 75 0.0 0.0 0.00 0.00 0.00 85 1013.7
20260902021315 81 76 0.0 0.0 0.00 0.00 0.00 85 1013.7
20260902020811 81 325 0.0 0.0 0.00 0.00 0.00 85 1013.6
20260902020307 81 326 0.0 0.0 0.00 0.00 0.00 84 1013.6
20260902015802 81 325 0.0 0.0 0.00 0.00 0.00 84 1013.4
20260902015258 82 327 0.0 0.0 0.00 0.00 0.00 83 1013.6
20260902014754 82 326 0.0 0.0 0.00 0.00 0.00 83 1013.3
20260902014250 82 14 0.0 0.0 0.00 0.00 0.00 82 1013.6
20260902013748 83 172 0.0 0.0 0.00 0.00 0.00 81 1013.6
20260902013244 83 171 0.0 0.0 0.00 0.00 0.00 80 1013.4
20260902012739 84 172 0.0 0.0 0.00 0.00 0.00 78 1013.2
20260902012235 85 172 0.0 0.0 0.00 0.00 0.00 76 1013.3
20260902011731 86 172 0.0 0.0 0.00 0.00 0.00 74 1013.3
20260902011230 86 172 0.0 0.0 0.00 0.00 0.00 73 1013.3
20260902010729 86 173 0.0 0.0 0.00 0.00 0.00 72 1013.0
20260902010226 87 171 0.0 0.0 0.00 0.00 0.00 72 1013.1
20260902005724 87 186 0.0 0.0 0.00 0.00 0.00 71 1013.2
20260902005220 87 173 0.0 0.0 0.00 0.00 0.00 72 1013.0
20260902004719 87 221 0.0 1.0 0.00 0.00 0.00 72 1013.0
20260902004214 87 180 0.0 0.0 0.00 0.00 0.00 72 1012.9
20260902003710 87 151 0.0 0.0 0.00 0.00 0.00 72 1012.8
20260902003205 87 170 0.0 0.0 0.00 0.00 0.00 72 1013.2
20260902002701 88 162 0.0 0.0 0.00 0.00 0.00 71 1013.2
20260902002201 88 180 0.0 0.0 0.00 0.00 0.00 70 1013.2
20260902001656 89 197 0.0 0.0 0.00 0.00 0.00 69 1013.3
20260902001155 89 165 0.0 0.0 0.00 0.00 0.00 69 1013.3
20260902000651 89 201 0.0 0.0 0.00 0.00 0.00 68 1013.3
20260902000146 90 237 0.0 1.0 0.00 0.00 0.00 67 1013.3
20260901235646 90 198 0.0 2.0 0.00 0.00 0.00 66 1013.4
20260901235141 91 210 0.0 0.0 0.00 0.00 0.00 66 1013.6
20260901234640 91 268 0.0 0.0 0.00 0.00 0.00 65 1013.7
20260901234135 91 228 0.0 0.0 0.00 0.00 0.00 65 1013.7
20260901233630 91 229 1.0 5.0 0.00 0.00 0.00 63 1013.3
20260901233126 92 235 0.0 2.0 0.00 0.00 0.00 63 1013.6
20260901232626 92 199 0.0 2.0 0.00 0.00 0.00 62 1013.9
20260901232121 92 221 2.0 5.0 0.00 0.00 0.00 61 1013.7
20260901231618 93 194 0.0 2.0 0.00 0.00 0.00 60 1013.4
20260901231114 93 171 0.0 1.0 0.00 0.00 0.00 60 1013.6
20260901230610 93 181 0.0 0.0 0.00 0.00 0.00 60 1013.6
20260901230109 93 51 0.0 0.0 0.00 0.00 0.00 60 1013.6
20260901225605 93 204 0.0 0.0 0.00 0.00 0.00 58 1013.7
20260901225104 93 173 0.0 0.0 0.00 0.00 0.00 58 1013.7
20260901224600 93 266 0.0 0.0 0.00 0.00 0.00 58 1013.6
20260901224056 93 200 2.0 6.0 0.00 0.00 0.00 58 1013.7
20260901223552 94 24 0.0 2.0 0.00 0.00 0.00 58 1013.7
20260901223047 94 232 0.0 2.0 0.00 0.00 0.00 58 1013.7
20260901222543 94 343 0.0 0.0 0.00 0.00 0.00 58 1013.6
20260901222038 95 187 2.0 2.0 0.00 0.00 0.00 58 1013.9
20260901221535 95 201 1.0 3.0 0.00 0.00 0.00 56 1013.6
20260901221030 95 198 0.0 5.0 0.00 0.00 0.00 56 1013.7
20260901220529 95 351 0.0 0.0 0.00 0.00 0.00 54 1013.7
20260901220028 96 326 0.0 2.0 0.00 0.00 0.00 54 1013.4
20260901215526 96 171 1.0 1.0 0.00 0.00 0.00 55 1013.7
20260901215021 96 8 0.0 0.0 0.00 0.00 0.00 54 1013.6
20260901214520 95 300 0.0 5.0 0.00 0.00 0.00 56 1013.7
20260901214019 96 210 2.0 7.0 0.00 0.00 0.00 55 1013.4
20260901213514 96 302 0.0 6.0 0.00 0.00 0.00 55 1013.8
20260901213008 96 273 6.0 9.0 0.00 0.00 0.00 55 1013.6
20260901212503 97 193 0.0 0.0 0.00 0.00 0.00 54 1013.7
20260901212000 97 296 0.0 2.0 0.00 0.00 0.00 55 1013.4
20260901211455 96 225 0.0 0.0 0.00 0.00 0.00 55 1013.7
20260901210951 95 217 7.0 9.0 0.00 0.00 0.00 55 1013.6
20260901210446 96 328 0.0 3.0 0.00 0.00 0.00 56 1013.7
20260901205943 97 205 0.0 1.0 0.00 0.00 0.00 55 1013.7
20260901205442 97 180 1.0 2.0 0.00 0.00 0.00 53 1013.7
20260901204937 96 162 1.0 7.0 0.00 0.00 0.00 51 1013.9
20260901204434 96 199 3.0 6.0 0.00 0.00 0.00 55 1013.8
20260901203933 96 332 0.0 3.0 0.00 0.00 0.00 57 1013.8